Vorticity
19 10 9 8 1 1 3 4 5 7 5 5 4 3 3 4 5 5 5 5 5 4 3 3 3 3 4 4 5 6 6 6 7 5 5 3 3 6 7 6 6 6 6
6 10 8 10 2 2 2 4 4 4 6 5 4 3 3 3 4 4 4 4 4 3 3 3 3 4 4 4 5 6 7 8 8 6 4 3 6 6 6 7 7 6 6
1 12 12 13 6 2 3 3 3 4 4 4 4 4 3 3 4 4 3 3 3 3 3 3 4 4 5 5 6 7 7 8 11 5 4 5 5 5 6 6 5 6 6
2 8 15 14 12 2 2 2 3 3 3 3 4 4 4 4 4 4 4 4 4 4 3 3 4 5 5 5 7 7 6 7 4 3 3 4 4 5 5 4 5 6 4
8 15 12 12 14 3 2 2 2 3 3 3 3 4 4 5 5 5 4 4 5 4 4 5 5 5 6 5 6 7 6 6 6 4 5 3 4 5 4 3 5 6 4
5 7 16 21 14 4 2 3 3 3 3 3 3 3 4 5 5 5 5 5 5 5 5 5 6 6 6 6 5 6 6 6 5 4 3 3 3 3 4 4 3 4 3
5 4 3 7 15 11 8 6 4 4 4 3 4 3 3 4 5 5 5 6 5 5 5 5 6 6 6 7 6 6 6 5 6 4 3 3 3 3 3 3 4 4 3
3 2 3 4 4 4 6 10 8 6 5 3 2 3 3 3 4 5 6 6 6 6 6 6 6 6 7 7 8 7 6 5 6 5 5 3 3 3 3 4 4 4 5
-4 10 3 0 2 0 6 7 7 7 8 7 4 3 3 3 3 4 5 7 6 6 6 6 6 6 6 6 7 7 6 5 6 4 5 4 3 3 3 4 4 5 5
3 7 5 2 2 2 3 5 5 6 6 6 6 5 4 3 3 4 4 4 6 6 7 7 7 7 6 6 7 7 6 5 5 4 4 0 4 3 3 4 4 5 5
6 4 2 4 1 4 3 3 5 3 4 6 7 7 7 5 4 3 3 4 4 4 6 7 7 7 7 7 7 7 7 6 6 5 3 3 3 3 4 4 3 3 4
3 3 3 4 3 3 3 4 3 5 5 4 7 8 9 7 5 3 3 4 3 4 4 5 7 6 7 7 7 8 8 5 6 3 4 4 4 4 4 4 4 4 4
9 8 12 5 8 8 7 5 3 4 6 6 6 9 11 9 8 6 3 4 4 4 3 3 5 8 7 7 7 7 7 6 7 2 3 5 6 4 4 4 4 4 4
26 16 9 22 5 7 7 9 6 4 0 3 5 4 8 13 10 11 4 5 3 4 3 0 4 4 7 8 7 7 6 5 8 5 6 7 8 5 4 4 4 4 5
-23 -19 10 15 13 12 7 9 10 13 9 2 -0 -1 4 7 12 16 11 5 4 3 4 -1 3 1 5 6 8 7 8 5 5 4 6 8 8 7 5 5 5 5 5
16 16 5 6 11 5 20 5 5 2 6 9 6 6 -1 2 4 8 14 11 8 -1 11 -10 -5 6 2 4 4 7 7 8 6 1 5 6 8 8 5 5 5 5 6
7 11 11 9 13 15 6 14 7 5 4 7 7 3 3 6 5 3 6 10 10 -1 8 4 7 3 12 6 -1 6 3 8 9 5 3 5 6 8 7 5 5 5 6
5 4 2 4 6 5 21 8 10 5 4 0 0 7 3 5 1 4 5 6 5 10 11 5 4 6 2 2 -3 7 5 3 2 7 5 4 5 6 7 7 6 5 5
8 7 5 7 8 6 5 9 17 14 7 7 5 3 5 7 2 1 2 2 4 4 5 7 6 6 9 7 9 6 4 4 3 2 4 4 6 6 5 7 7 6 6
12 13 11 9 8 11 11 8 5 5 10 16 21 18 15 8 9 7 6 8 6 8 5 5 5 9 9 6 5 4 5 8 6 4 2 3 4 6 5 5 7 6 6
9 9 11 11 8 7 4 4 6 2 3 4 7 12 11 17 17 13 14 13 7 6 10 14 6 2 4 -1 2 3 5 4 4 6 6 4 7 1 0 7 5 7 7
9 9 6 4 5 8 8 7 6 7 8 10 9 5 4 3 0 3 6 10 6 18 2 11 -0 7 15 9 16 7 9 5 4 4 0 5 9 8 7 6 5 7 4
2 0 1 4 3 1 4 5 3 4 8 6 1 0 3 3 6 7 5 3 2 1 3 8 5 18 1 6 15 2 10 17 14 8 9 6 5 13 10 5 4 3 5
2 -0 5 5 6 6 6 4 7 7 3 6 10 10 8 7 4 7 7 8 9 11 12 8 11 -3 18 -4 12 -9 9 7 -0 -4 14 6 8 1 5 8 12 9 1
2 7 -2 -1 -1 5 6 4 4 7 10 9 9 9 8 8 12 13 15 23 21 14 11 14 5 30 -10 -8 0 3 18 2 3 34 -13 28 15 10 2 6 -1 3 19
13 1 1 -1 -4 -2 7 10 11 10 10 9 11 8 8 10 12 9 13 11 12 14 15 11 12 10 -3 30 24 -11 9 8 23 -7 15 1 6 20 28 -5 12 6 -4
Height
3164 3164 3165 3165 3165 3166 3166 3166 3166 3166 3167 3168 3167 3167 3168 3170 3171 3172 3173 3174 3175 3176 3176 3177 3177 3177 3177 3177 3176 3176 3177 3177 3177 3177 3177 3177 3176 3176 3176 3175 3174 3174 3173
3164 3163 3164 3165 3166 3166 3166 3167 3167 3168 3168 3169 3169 3169 3170 3171 3172 3173 3174 3175 3176 3176 3177 3177 3178 3178 3178 3177 3177 3177 3177 3177 3177 3177 3177 3177 3177 3177 3177 3177 3176 3175 3174
3162 3163 3163 3164 3165 3167 3167 3168 3168 3169 3169 3169 3171 3171 3171 3172 3173 3174 3174 3175 3176 3177 3177 3177 3177 3177 3178 3178 3178 3177 3177 3176 3176 3176 3177 3177 3177 3177 3177 3177 3177 3176 3176
3162 3162 3163 3163 3164 3166 3167 3168 3168 3169 3170 3170 3171 3172 3172 3173 3174 3174 3175 3175 3176 3176 3176 3176 3176 3176 3176 3177 3177 3177 3176 3177 3176 3176 3177 3177 3177 3177 3177 3177 3177 3177 3176
3161 3162 3161 3161 3162 3165 3167 3168 3168 3169 3169 3170 3170 3171 3172 3173 3174 3174 3175 3176 3176 3176 3176 3176 3176 3176 3176 3176 3176 3176 3177 3176 3176 3176 3177 3177 3178 3178 3178 3178 3177 3177 3177
3162 3162 3162 3161 3162 3164 3166 3167 3168 3169 3169 3169 3170 3171 3171 3172 3173 3174 3175 3175 3175 3175 3175 3175 3175 3175 3175 3175 3174 3175 3176 3176 3176 3175 3175 3177 3178 3178 3178 3178 3178 3177 3177
3163 3162 3162 3162 3163 3164 3165 3166 3167 3168 3169 3170 3170 3171 3171 3171 3172 3172 3174 3174 3174 3175 3174 3174 3174 3174 3174 3174 3174 3174 3174 3175 3175 3175 3174 3177 3177 3177 3178 3178 3178 3177 3177
3163 3162 3161 3161 3162 3163 3164 3164 3165 3166 3167 3168 3168 3169 3170 3170 3171 3172 3173 3173 3173 3174 3174 3173 3173 3172 3172 3172 3173 3173 3173 3173 3174 3174 3173 3176 3176 3176 3177 3177 3177 3177 3176
3161 3161 3160 3161 3162 3162 3162 3162 3163 3164 3165 3165 3166 3166 3167 3168 3169 3170 3171 3172 3171 3171 3172 3172 3172 3171 3171 3171 3171 3171 3172 3172 3173 3172 3171 3175 3175 3175 3175 3176 3175 3175 3175
3159 3159 3159 3160 3160 3160 3160 3160 3160 3160 3161 3161 3162 3163 3164 3165 3166 3167 3167 3169 3169 3169 3170 3170 3170 3170 3170 3170 3169 3170 3170 3170 3170 3169 3170 3173 3173 3174 3174 3174 3174 3174 3174
3157 3157 3157 3157 3157 3158 3157 3157 3157 3157 3157 3158 3159 3160 3161 3163 3164 3164 3163 3165 3165 3166 3167 3167 3168 3168 3168 3168 3168 3168 3168 3168 3168 3167 3169 3171 3171 3171 3172 3172 3172 3172 3172
3154 3153 3154 3155 3155 3155 3155 3155 3155 3155 3156 3157 3157 3158 3158 3158 3159 3160 3161 3162 3162 3163 3164 3165 3165 3165 3165 3166 3167 3167 3166 3165 3165 3162 3167 3169 3169 3170 3169 3170 3170 3170 3169
3148 3148 3149 3150 3151 3151 3150 3151 3151 3152 3152 3153 3153 3154 3154 3154 3154 3156 3157 3159 3160 3160 3160 3161 3162 3163 3162 3162 3163 3164 3165 3164 3164 3159 3164 3166 3166 3166 3167 3168 3168 3167 3167
3143 3141 3141 3144 3146 3147 3145 3145 3147 3148 3149 3149 3150 3150 3151 3151 3150 3151 3153 3154 3155 3155 3156 3157 3157 3158 3159 3159 3159 3161 3161 3161 3161 3159 3161 3162 3163 3163 3163 3164 3164 3164 3164
3141 3139 3135 3139 3141 3142 3142 3141 3141 3142 3143 3145 3146 3148 3148 3148 3147 3147 3148 3149 3150 3150 3151 3150 3154 3154 3154 3155 3155 3155 3157 3156 3156 3155 3156 3160 3160 3159 3160 3161 3161 3162 3161
3139 3139 3136 3135 3137 3139 3139 3139 3139 3140 3141 3140 3141 3141 3143 3144 3144 3144 3144 3144 3144 3144 3144 3144 3148 3148 3150 3150 3150 3151 3151 3151 3151 3147 3150 3154 3156 3155 3155 3156 3157 3158 3159
3135 3137 3135 3133 3131 3134 3135 3136 3136 3137 3137 3137 3137 3137 3138 3138 3139 3140 3140 3141 3141 3140 3139 3138 3138 3141 3141 3143 3143 3146 3146 3145 3146 3143 3142 3145 3149 3150 3150 3151 3152 3153 3154
3132 3133 3133 3132 3132 3130 3131 3132 3133 3133 3133 3133 3132 3132 3133 3134 3135 3135 3134 3135 3137 3136 3135 3135 3135 3134 3134 3133 3135 3137 3139 3138 3138 3138 3132 3136 3140 3143 3144 3145 3146 3147 3148
3128 3129 3129 3129 3129 3128 3127 3127 3128 3128 3129 3129 3129 3127 3127 3129 3129 3129 3129 3129 3130 3130 3130 3130 3128 3128 3128 3128 3129 3129 3129 3131 3130 3131 3129 3126 3130 3134 3136 3137 3139 3141 3142
3123 3124 3125 3125 3125 3125 3125 3124 3124 3124 3124 3123 3123 3123 3122 3122 3122 3123 3122 3122 3123 3122 3121 3121 3121 3121 3121 3122 3122 3120 3120 3119 3120 3120 3121 3118 3119 3122 3127 3130 3131 3133 3134
3117 3118 3118 3119 3119 3119 3119 3120 3120 3119 3119 3119 3119 3118 3117 3114 3114 3114 3114 3114 3114 3113 3113 3113 3112 3111 3112 3114 3113 3110 3109 3108 3108 3109 3111 3113 3108 3113 3113 3117 3122 3124 3126
3113 3114 3115 3116 3116 3115 3115 3115 3115 3113 3113 3113 3112 3112 3111 3110 3109 3107 3107 3106 3106 3104 3105 3104 3104 3101 3101 3104 3101 3102 3098 3096 3095 3100 3100 3100 3101 3102 3103 3104 3111 3115 3118
3110 3111 3111 3111 3111 3111 3110 3109 3109 3108 3107 3106 3106 3106 3105 3103 3102 3100 3099 3097 3097 3095 3093 3093 3093 3091 3091 3091 3092 3092 3086 3083 3087 3088 3088 3089 3091 3088 3093 3089 3098 3104 3106
3107 3107 3106 3105 3104 3105 3105 3104 3103 3102 3100 3098 3096 3095 3096 3095 3094 3092 3089 3088 3086 3085 3083 3082 3081 3079 3077 3079 3079 3079 3079 3078 3073 3068 3073 3075 3076 3078 3076 3077 3080 3088 3090
3099 3100 3100 3100 3100 3099 3097 3096 3095 3093 3091 3089 3087 3083 3081 3079 3079 3076 3074 3074 3073 3072 3071 3069 3069 3064 3064 3066 3063 3062 3065 3068 3063 3058 3053 3061 3067 3065 3068 3066 3064 3076 3078
3090 3094 3092 3091 3092 3091 3089 3086 3084 3081 3080 3078 3077 3074 3071 3067 3066 3064 3062 3061 3059 3057 3057 3057 3055 3053 3052 3051 3052 3050 3049 3050 3053 3053 3044 3042 3051 3052 3051 3052 3053 3057 3069